Satellite: ORSTED
Catalog number: 25635
Epoch time:      103112.89373387
Element set:     886 
Inclination:       96.4613 deg
RA of node:        84.0229 deg
Eccentricity:    0.0145686
Arg of perigee:   127.5464 deg
Mean anomaly:     233.9080 deg
Mean motion:   14.44930874 rev/day
Decay rate:    4.0400E-006 rev/day^2
Epoch rev:           21908
Checksum:              321

Satellite: SUNSAT
Catalog number: 25636
Epoch time:      103113.51328246
Element set:     680 
Inclination:       96.4639 deg
RA of node:        83.0216 deg
Eccentricity:    0.0149827
Arg of perigee:   132.7194 deg
Mean anomaly:     228.6728 deg
Mean motion:   14.43001026 rev/day
Decay rate:    1.7200E-006 rev/day^2
Epoch rev:           21903
Checksum:              284

Satellite: UOSAT 12
Catalog number: 25693
Epoch time:      103113.49174847
Element set:     904 
Inclination:       64.5590 deg
RA of node:       175.1242 deg
Eccentricity:    0.0026213
Arg of perigee:   312.6030 deg
Mean anomaly:      47.2863 deg
Mean motion:   14.76456768 rev/day
Decay rate:    3.1100E-006 rev/day^2
Epoch rev:           21569
Checksum:              299

Satellite: FENGYUN 1C
Catalog number: 25730
Epoch time:      103113.22744278
Element set:     818 
Inclination:       98.6286 deg
RA of node:       135.2267 deg
Eccentricity:    0.0014229
Arg of perigee:   177.6184 deg
Mean anomaly:     182.5057 deg
Mean motion:   14.11741269 rev/day
Decay rate:    2.4999E-007 rev/day^2
Epoch rev:           20361
Checksum:              320

Satellite: ASTRA 1H
Catalog number: 25785
Epoch time:      103108.00000000
Element set:     379 
Inclination:        0.0122 deg
RA of node:       319.8851 deg
Eccentricity:    0.0002995
Arg of perigee:    65.1991 deg
Mean anomaly:     199.8210 deg
Mean motion:    1.00273184 rev/day
Decay rate:    1.1399E-006 rev/day^2
Epoch rev:            1408
Checksum:              262

Satellite: TERRA
Catalog number: 25994
Epoch time:      103113.24365205
Element set:     906 
Inclination:       98.1867 deg
RA of node:       188.4400 deg
Eccentricity:    0.0000917
Arg of perigee:    88.4366 deg
Mean anomaly:     271.6938 deg
Mean motion:   14.57141165 rev/day
Decay rate:    5.7100E-006 rev/day^2
Epoch rev:           17794
Checksum:              324

Satellite: JAWSAT
Catalog number: 26061
Epoch time:      103112.55415585
Element set:     818 
Inclination:      100.1945 deg
RA of node:       181.2756 deg
Eccentricity:    0.0035831
Arg of perigee:   101.8129 deg
Mean anomaly:     258.7074 deg
Mean motion:   14.37901937 rev/day
Decay rate:    3.4499E-006 rev/day^2
Epoch rev:           16958
Checksum:              318

Satellite: OPAL
Catalog number: 26063
Epoch time:      103112.70388534
Element set:     768 
Inclination:      100.2009 deg
RA of node:       178.6968 deg
Eccentricity:    0.0037395
Arg of perigee:   108.7190 deg
Mean anomaly:     251.8048 deg
Mean motion:   14.35508748 rev/day
Decay rate:    9.0999E-007 rev/day^2
Epoch rev:           16944
Checksum:              341

Satellite: ASUSAT
Catalog number: 26065
Epoch time:      103113.56556291
Element set:     787 
Inclination:      100.1985 deg
RA of node:       179.8789 deg
Eccentricity:    0.0037954
Arg of perigee:   107.7920 deg
Mean anomaly:     252.7408 deg
Mean motion:   14.35539135 rev/day
Decay rate:    1.0700E-006 rev/day^2
Epoch rev:           16956
Checksum:              331

Satellite: GOES 11
Catalog number: 26352
Epoch time:      103113.45044969
Element set:     124 
Inclination:        0.2995 deg
RA of node:        98.5479 deg
Eccentricity:    0.0002215
Arg of perigee:   257.5804 deg
Mean anomaly:     263.0717 deg
Mean motion:    1.00272996 rev/day
Decay rate:   -4.7000E-007 rev/day^2
Epoch rev:            1087
Checksum:              290

Satellite: EUTELSAT W4
Catalog number: 26369
Epoch time:      103105.78126854
Element set:     375 
Inclination:        0.0567 deg
RA of node:        31.2297 deg
Eccentricity:    0.0002759
Arg of perigee:   330.6543 deg
Mean anomaly:     158.9819 deg
Mean motion:    1.00272063 rev/day
Decay rate:    1.5099E-006 rev/day^2
Epoch rev:            1061
Checksum:              400

Satellite: FENGYUN 2B
Catalog number: 26382
Epoch time:      103111.66420560
Element set:     836 
Inclination:        0.4179 deg
RA of node:       292.4241 deg
Eccentricity:    0.0001001
Arg of perigee:   267.9937 deg
Mean anomaly:     352.4708 deg
Mean motion:    1.00283217 rev/day
Decay rate:   -3.4400E-006 rev/day^2
Epoch rev:            1033
Checksum:              252

Satellite: EUTELSAT W1
Catalog number: 26487
Epoch time:      103112.86256008
Element set:     388 
Inclination:        0.0377 deg
RA of node:       126.3449 deg
Eccentricity:    0.0006895
Arg of perigee:   227.0163 deg
Mean anomaly:     177.6071 deg
Mean motion:    1.00271541 rev/day
Decay rate:    5.3000E-007 rev/day^2
Epoch rev:             965
Checksum:              278

Satellite: ASTRA 2B
Catalog number: 26494
Epoch time:      103108.00000000
Element set:     262 
Inclination:        0.0178 deg
RA of node:       354.5658 deg
Eccentricity:    0.0005000
Arg of perigee:   302.8402 deg
Mean anomaly:     296.4717 deg
Mean motion:    1.00276704 rev/day
Decay rate:    1.4400E-006 rev/day^2
Epoch rev:             950
Checksum:              226

Satellite: NOAA 16
Catalog number: 26536
Epoch time:      103113.21846878
Element set:     300 
Inclination:       98.9120 deg
RA of node:        61.0683 deg
Eccentricity:    0.0011416
Arg of perigee:   123.6443 deg
Mean anomaly:     236.5828 deg
Mean motion:   14.11940054 rev/day
Decay rate:    8.3999E-007 rev/day^2
Epoch rev:           13313
Checksum:              300

Satellite: SAUDISAT 1A
Catalog number: 26545
Epoch time:      103112.35913447
Element set:     441 
Inclination:       64.5597 deg
RA of node:       198.9137 deg
Eccentricity:    0.0047353
Arg of perigee:   228.6499 deg
Mean anomaly:     131.0513 deg
Mean motion:   14.79143115 rev/day
Decay rate:    7.2799E-006 rev/day^2
Epoch rev:           13850
Checksum:              326

Satellite: UNISAT
Catalog number: 26547
Epoch time:      103111.63514128
Element set:     461 
Inclination:       64.5579 deg
RA of node:       203.1142 deg
Eccentricity:    0.0054629
Arg of perigee:   230.1487 deg
Mean anomaly:     129.4795 deg
Mean motion:   14.80007844 rev/day
Decay rate:    1.4410E-005 rev/day^2
Epoch rev:           13837
Checksum:              289

Satellite: TIUNGSAT 1
Catalog number: 26548
Epoch time:      103111.60855297
Element set:     444 
Inclination:       64.5574 deg
RA of node:       193.4128 deg
Eccentricity:    0.0040609
Arg of perigee:   229.2267 deg
Mean anomaly:     130.5269 deg
Mean motion:   14.81477610 rev/day
Decay rate:    9.6599E-006 rev/day^2
Epoch rev:           13855
Checksum:              333

Satellite: SAUDISAT 1B
Catalog number: 26549
Epoch time:      103111.76391323
Element set:     743 
Inclination:       64.5522 deg
RA of node:       205.1754 deg
Eccentricity:    0.0051892
Arg of perigee:   228.2389 deg
Mean anomaly:     131.4270 deg
Mean motion:   14.78071077 rev/day
Decay rate:    6.5300E-006 rev/day^2
Epoch rev:           13833
Checksum:              294

Satellite: AMSAT OSCAR 40
Catalog number: 26609
Epoch time:      103109.00807478
Element set:     325 
Inclination:        8.5228 deg
RA of node:        53.4139 deg
Eccentricity:    0.7957312
Arg of perigee:   165.7240 deg
Mean anomaly:     252.3808 deg
Mean motion:    1.25596241 rev/day
Decay rate:   -3.4600E-006 rev/day^2
Epoch rev:            1133
Checksum:              368

Satellite: GOES 12
Catalog number: 26871
Epoch time:      103113.35625340
Element set:     931 
Inclination:        0.1695 deg
RA of node:       274.4035 deg
Eccentricity:    0.0000925
Arg of perigee:    90.6251 deg
Mean anomaly:     258.8490 deg
Mean motion:    1.00346196 rev/day
Decay rate:   -2.7099E-006 rev/day^2
Epoch rev:             647
Checksum:              288

Satellite: PCSAT
Catalog number: 26931
Epoch time:      103113.21000232
Element set:     456 
Inclination:       67.0466 deg
RA of node:        91.7701 deg
Eccentricity:    0.0005949
Arg of perigee:   274.1964 deg
Mean anomaly:      85.8456 deg
Mean motion:   14.29149827 rev/day
Decay rate:    9.4000E-007 rev/day^2
Epoch rev:            8144
Checksum:              297

Satellite: SAPPHIRE
Catalog number: 26932
Epoch time:      103112.90043944
Element set:     450 
Inclination:       67.0535 deg
RA of node:        92.2584 deg
Eccentricity:    0.0003994
Arg of perigee:   265.7149 deg
Mean anomaly:      94.3500 deg
Mean motion:   14.29318512 rev/day
Decay rate:    3.9999E-008 rev/day^2
Epoch rev:            8142
Checksum:              314

Satellite: ENVISAT
Catalog number: 27386
Epoch time:      103112.55910570
Element set:     7 
Inclination:       98.5447 deg
RA of node:       180.2130 deg
Eccentricity:    0.0000930
Arg of perigee:    88.9762 deg
Mean anomaly:     271.1529 deg
Mean motion:   14.32248008 rev/day
Decay rate:    1.3500E-006 rev/day^2
Epoch rev:            5976
Checksum:              287

Satellite: IDEFIX/ARIANE 
Catalog number: 27422
Epoch time:      103113.22449856
Element set:     286 
Inclination:       98.6866 deg
RA of node:       192.1005 deg
Eccentricity:    0.0012052
Arg of perigee:   328.1665 deg
Mean anomaly:      31.8790 deg
Mean motion:   14.28004495 rev/day
Decay rate:    1.5099E-006 rev/day^2
Epoch rev:            5054
Checksum:              306

